Time,TemperatureF,DewpointF,PressureIn,WindDirection,WindDirectionDegrees,WindSpeedMPH,WindSpeedGustMPH,Humidity,HourlyPrecipIn,Conditions,Clouds,dailyrainin,SoftwareType,DateUTC
2013-01-10 00:01:00,37.6,34.1,30.07,NNW,336,3.5,3.5,87,0.00,RA,,0.00,WeatherDisplay:10.37,2013-01-10 08:01:00,
2013-01-10 00:06:00,37.4,34.2,30.07,NNW,338,3.5,3.5,88,0.00,RA,,0.00,WeatherDisplay:10.37,2013-01-10 08:06:00,
2013-01-10 00:11:00,37.3,34.4,30.07,NW,323,0.0,0.0,89,0.00,CLR,,0.00,WeatherDisplay:10.37,2013-01-10 08:11:00,
2013-01-10 00:16:00,37.3,34.4,30.07,NW,314,2.0,2.0,89,0.00,CLR,,0.00,WeatherDisplay:10.37,2013-01-10 08:16:00,
2013-01-10 00:21:00,38.0,35.0,30.07,WNW,298,1.1,0.0,89,0.00,CLR,,0.00,WeatherDisplay:10.37,2013-01-10 08:21:00,
2013-01-10 00:26:00,37.9,34.1,30.07,WNW,298,0.0,0.0,86,0.00,CLR,,0.00,WeatherDisplay:10.37,2013-01-10 08:26:00,
2013-01-10 00:32:00,37.2,33.7,30.08,WNW,297,0.0,0.0,87,0.00,CLR,,0.00,WeatherDisplay:10.37,2013-01-10 08:32:00,
2013-01-10 00:37:00,36.6,33.4,30.08,WSW,245,1.1,1.1,88,0.00,CLR,,0.00,WeatherDisplay:10.37,2013-01-10 08:37:00,
2013-01-10 00:42:00,36.6,33.9,30.08,WSW,248,0.0,0.0,90,0.00,CLR,,0.00,WeatherDisplay:10.37,2013-01-10 08:42:00,
2013-01-10 00:47:00,36.7,34.0,30.08,WSW,248,1.1,0.0,90,0.00,CLR,,0.00,WeatherDisplay:10.37,2013-01-10 08:47:00,
2013-01-10 00:52:00,36.8,33.9,30.09,WSW,249,1.1,1.1,89,0.00,CLR,,0.00,WeatherDisplay:10.37,2013-01-10 08:52:00,
2013-01-10 00:57:00,37.0,34.3,30.09,NW,307,2.3,2.3,90,0.00,CLR,,0.00,WeatherDisplay:10.37,2013-01-10 08:57:00,
2013-01-10 01:02:00,37.5,34.6,30.09,NW,326,2.3,2.3,89,0.00,CLR,,0.00,WeatherDisplay:10.37,2013-01-10 09:02:00,
2013-01-10 01:07:00,37.3,33.8,30.09,North,359,2.3,2.3,87,0.00,CLR,,0.00,WeatherDisplay:10.37,2013-01-10 09:07:00,
2013-01-10 01:12:00,36.5,33.3,30.08,SW,226,2.3,2.3,88,0.00,CLR,,0.00,WeatherDisplay:10.37,2013-01-10 09:12:00,
2013-01-10 01:17:00,36.0,32.8,30.09,SW,226,0.0,0.0,88,0.00,CLR,,0.00,WeatherDisplay:10.37,2013-01-10 09:17:00,
2013-01-10 01:22:00,35.4,32.2,30.09,SW,226,0.0,0.0,88,0.00,CLR,,0.00,WeatherDisplay:10.37,2013-01-10 09:22:00,
2013-01-10 01:28:00,35.4,33.0,30.09,SW,233,0.0,0.1,91,0.00,CLR,,0.00,WeatherDisplay:10.37,2013-01-10 09:28:00,
2013-01-10 01:33:00,35.6,33.0,30.09,East,79,2.3,2.3,90,0.00,CLR,,0.00,WeatherDisplay:10.37,2013-01-10 09:33:00,
2013-01-10 01:38:00,35.1,32.5,30.09,ENE,78,0.0,0.0,90,0.00,CLR,,0.00,WeatherDisplay:10.37,2013-01-10 09:38:00,
2013-01-10 01:43:00,35.0,32.4,30.09,NNW,329,0.0,0.0,90,0.00,CLR,,0.00,WeatherDisplay:10.37,2013-01-10 09:43:00,
2013-01-10 01:48:00,35.8,33.7,30.09,NW,319,1.1,1.1,92,0.00,CLR,,0.00,WeatherDisplay:10.37,2013-01-10 09:48:00,
2013-01-10 01:53:00,35.5,32.6,30.09,NW,319,0.0,0.0,89,0.00,CLR,,0.00,WeatherDisplay:10.37,2013-01-10 09:53:00,
2013-01-10 01:59:00,34.9,32.0,30.10,NW,321,0.0,0.0,89,0.00,CLR,,0.00,WeatherDisplay:10.37,2013-01-10 09:59:00,
2013-01-10 02:04:00,34.3,31.7,30.10,NW,320,0.0,0.0,90,0.00,CLR,,0.00,WeatherDisplay:10.37,2013-01-10 10:04:00,
2013-01-10 02:09:00,34.1,31.7,30.10,NW,321,0.0,0.0,91,0.00,CLR,,0.00,WeatherDisplay:10.37,2013-01-10 10:09:00,
2013-01-10 02:14:00,34.5,32.4,30.10,NNW,334,1.1,1.1,92,0.00,CLR,,0.00,WeatherDisplay:10.37,2013-01-10 10:14:00,
2013-01-10 02:19:00,34.3,31.7,30.10,ESE,105,2.3,0.0,90,0.00,CLR,,0.00,WeatherDisplay:10.37,2013-01-10 10:19:00,
2013-01-10 02:24:00,33.6,31.3,30.10,ESE,108,1.0,1.0,91,0.00,CLR,,0.00,WeatherDisplay:10.37,2013-01-10 10:24:00,
2013-01-10 02:29:00,33.3,31.0,30.10,ESE,107,0.0,0.0,91,0.00,CLR,,0.00,WeatherDisplay:10.37,2013-01-10 10:29:00,
2013-01-10 02:34:00,33.3,31.2,30.10,ESE,107,0.0,0.0,92,0.00,CLR,,0.00,WeatherDisplay:10.37,2013-01-10 10:34:00,
2013-01-10 02:39:00,33.3,31.2,30.10,ESE,103,1.0,1.0,92,0.00,CLR,,0.00,WeatherDisplay:10.37,2013-01-10 10:39:00,
2013-01-10 02:44:00,33.6,31.8,30.10,SSW,211,1.1,1.1,93,0.00,CLR,,0.00,WeatherDisplay:10.37,2013-01-10 10:44:00,
2013-01-10 02:49:00,33.5,31.7,30.10,WSW,239,2.3,2.3,93,0.00,CLR,,0.00,WeatherDisplay:10.37,2013-01-10 10:49:00,
2013-01-10 02:54:00,33.3,31.2,30.10,ENE,65,3.5,3.5,92,0.00,CLR,,0.00,WeatherDisplay:10.37,2013-01-10 10:54:00,
2013-01-10 02:59:00,33.2,31.4,30.10,ENE,65,0.0,0.0,93,0.00,CLR,,0.00,WeatherDisplay:10.37,2013-01-10 10:59:00,
2013-01-10 03:04:00,32.9,30.8,30.10,ENE,65,0.0,0.0,92,0.00,CLR,,0.00,WeatherDisplay:10.37,2013-01-10 11:04:00,
2013-01-10 03:10:00,32.9,31.1,30.10,ENE,65,1.0,1.0,93,0.00,CLR,,0.00,WeatherDisplay:10.37,2013-01-10 11:10:00,
2013-01-10 03:15:00,32.5,30.4,30.10,ENE,68,2.3,2.3,92,0.00,CLR,,0.00,WeatherDisplay:10.37,2013-01-10 11:15:00,
2013-01-10 03:20:00,32.4,30.6,30.11,WSW,239,1.1,1.1,93,0.00,CLR,,0.00,WeatherDisplay:10.37,2013-01-10 11:20:00,
2013-01-10 03:26:00,32.3,30.5,30.10,WSW,239,0.0,0.0,93,0.00,CLR,,0.00,WeatherDisplay:10.37,2013-01-10 11:26:00,
2013-01-10 03:31:00,32.7,31.2,30.10,WSW,239,0.0,0.0,94,0.00,CLR,,0.00,WeatherDisplay:10.37,2013-01-10 11:31:00,
2013-01-10 03:36:00,32.7,31.2,30.10,WSW,239,0.0,0.0,94,0.00,CLR,,0.00,WeatherDisplay:10.37,2013-01-10 11:36:00,
2013-01-10 03:41:00,33.1,31.6,30.10,WSW,240,0.0,0.0,94,0.00,CLR,,0.00,WeatherDisplay:10.37,2013-01-10 11:41:00,
2013-01-10 03:46:00,32.7,30.9,30.10,WSW,239,1.1,1.1,93,0.00,CLR,,0.00,WeatherDisplay:10.37,2013-01-10 11:46:00,
2013-01-10 03:51:00,33.2,31.7,30.10,West,262,1.1,0.0,94,0.00,CLR,,0.00,WeatherDisplay:10.37,2013-01-10 11:51:00,
2013-01-10 03:56:00,33.4,31.9,30.10,ENE,70,3.5,3.5,94,0.00,CLR,,0.00,WeatherDisplay:10.37,2013-01-10 11:56:00,
2013-01-10 04:01:00,33.6,32.1,30.10,ENE,68,2.3,2.3,94,0.00,CLR,,0.00,WeatherDisplay:10.37,2013-01-10 12:01:00,
2013-01-10 04:06:00,34.0,32.5,30.10,ENE,67,0.0,0.0,94,0.00,CLR,,0.00,WeatherDisplay:10.37,2013-01-10 12:06:00,
2013-01-10 04:12:00,34.0,32.2,30.10,WNW,294,0.0,0.0,93,0.00,CLR,,0.00,WeatherDisplay:10.37,2013-01-10 12:12:00,
2013-01-10 04:17:00,33.6,31.8,30.09,SW,235,0.0,0.0,93,0.00,CLR,,0.00,WeatherDisplay:10.37,2013-01-10 12:17:00,
2013-01-10 04:22:00,33.5,31.7,30.09,ESE,110,0.0,0.5,93,0.00,CLR,,0.00,WeatherDisplay:10.37,2013-01-10 12:22:00,
2013-01-10 04:27:00,34.0,32.2,30.08,ESE,111,1.1,0.0,93,0.00,CLR,,0.00,WeatherDisplay:10.37,2013-01-10 12:27:00,
2013-01-10 04:32:00,34.3,32.5,30.08,East,82,1.1,1.1,93,0.00,CLR,,0.00,WeatherDisplay:10.37,2013-01-10 12:32:00,
2013-01-10 04:38:00,34.8,33.0,30.08,NE,51,2.3,2.3,93,0.00,CLR,,0.00,WeatherDisplay:10.37,2013-01-10 12:38:00,
2013-01-10 04:43:00,34.9,32.5,30.08,WSW,253,1.1,1.1,91,0.00,CLR,,0.00,WeatherDisplay:10.37,2013-01-10 12:43:00,
2013-01-10 04:48:00,34.1,31.7,30.08,WSW,242,2.3,2.3,91,0.00,CLR,,0.00,WeatherDisplay:10.37,2013-01-10 12:48:00,
2013-01-10 04:53:00,34.1,32.0,30.08,WSW,248,1.1,1.1,92,0.00,CLR,,0.00,WeatherDisplay:10.37,2013-01-10 12:53:00,
2013-01-10 04:58:00,34.3,32.5,30.08,WSW,238,1.1,0.0,93,0.00,CLR,,0.00,WeatherDisplay:10.37,2013-01-10 12:58:00,
2013-01-10 05:03:00,34.4,32.6,30.08,SW,236,0.0,0.0,93,0.00,CLR,,0.00,WeatherDisplay:10.37,2013-01-10 13:03:00,
2013-01-10 05:09:00,34.2,32.1,30.08,SW,233,0.0,0.0,92,0.00,CLR,,0.00,WeatherDisplay:10.37,2013-01-10 13:09:00,
2013-01-10 05:14:00,34.0,31.9,30.08,SW,222,1.1,0.0,92,0.00,CLR,,0.00,WeatherDisplay:10.37,2013-01-10 13:14:00,
2013-01-10 05:19:00,34.0,32.2,30.08,SW,226,2.3,2.3,93,0.00,CLR,,0.00,WeatherDisplay:10.37,2013-01-10 13:19:00,
2013-01-10 05:24:00,34.4,32.6,30.09,SW,233,1.1,1.1,93,0.00,CLR,,0.00,WeatherDisplay:10.37,2013-01-10 13:24:00,
2013-01-10 05:30:00,34.6,32.8,30.09,ESE,116,1.0,1.0,93,0.00,CLR,,0.00,WeatherDisplay:10.37,2013-01-10 13:30:00,
2013-01-10 05:35:00,34.1,32.0,30.09,ESE,108,0.0,0.0,92,0.00,CLR,,0.00,WeatherDisplay:10.37,2013-01-10 13:35:00,
2013-01-10 05:40:00,34.0,31.9,30.09,ESE,108,0.0,0.0,92,0.00,CLR,,0.00,WeatherDisplay:10.37,2013-01-10 13:40:00,
2013-01-10 05:45:00,33.7,31.6,30.09,ESE,109,0.0,0.0,92,0.00,CLR,,0.00,WeatherDisplay:10.37,2013-01-10 13:45:00,
2013-01-10 05:50:00,33.5,31.4,30.09,ESE,110,0.0,0.0,92,0.00,CLR,,0.00,WeatherDisplay:10.37,2013-01-10 13:50:00,
2013-01-10 05:55:00,33.2,31.1,30.09,ESE,110,0.0,0.0,92,0.00,CLR,,0.00,WeatherDisplay:10.37,2013-01-10 13:55:00,
2013-01-10 06:00:00,33.0,30.9,30.09,WSW,240,0.0,0.0,92,0.00,CLR,,0.00,WeatherDisplay:10.37,2013-01-10 14:00:00,
2013-01-10 06:05:00,32.7,30.9,30.10,WSW,246,0.0,0.0,93,0.00,CLR,,0.00,WeatherDisplay:10.37,2013-01-10 14:05:00,
2013-01-10 06:10:00,32.6,30.8,30.10,NNE,20,2.3,2.3,93,0.00,CLR,,0.00,WeatherDisplay:10.37,2013-01-10 14:10:00,
2013-01-10 06:15:00,32.2,30.4,30.10,NW,321,0.0,0.0,93,0.00,CLR,,0.00,WeatherDisplay:10.37,2013-01-10 14:15:00,
2013-01-10 06:21:00,32.4,30.9,30.10,NW,322,0.0,0.0,94,0.00,CLR,,0.00,WeatherDisplay:10.37,2013-01-10 14:21:00,
2013-01-10 06:26:00,32.4,30.9,30.11,NE,34,3.5,3.5,94,0.00,CLR,,0.00,WeatherDisplay:10.37,2013-01-10 14:26:00,
2013-01-10 06:31:00,32.6,31.1,30.11,NE,34,0.0,0.0,94,0.00,CLR,,0.00,WeatherDisplay:10.37,2013-01-10 14:31:00,
2013-01-10 06:36:00,31.5,29.4,30.11,ENE,72,2.3,2.3,92,0.00,CLR,,0.00,WeatherDisplay:10.37,2013-01-10 14:36:00,
2013-01-10 06:42:00,31.5,29.7,30.10,ENE,71,0.0,0.0,93,0.00,CLR,,0.00,WeatherDisplay:10.37,2013-01-10 14:42:00,
2013-01-10 06:47:00,32.0,30.5,30.10,ENE,71,0.0,0.0,94,0.00,CLR,,0.00,WeatherDisplay:10.37,2013-01-10 14:47:00,
2013-01-10 06:52:00,32.1,30.6,30.11,WSW,238,1.1,1.1,94,0.00,CLR,,0.00,WeatherDisplay:10.37,2013-01-10 14:52:00,
2013-01-10 06:57:00,31.7,30.2,30.11,SW,236,0.0,0.0,94,0.00,CLR,,0.00,WeatherDisplay:10.37,2013-01-10 14:57:00,
2013-01-10 07:02:00,31.6,30.1,30.11,SW,236,0.0,0.0,94,0.00,CLR,,0.00,WeatherDisplay:10.37,2013-01-10 15:02:00,
2013-01-10 07:07:00,31.9,30.4,30.11,SW,236,0.0,0.0,94,0.00,CLR,,0.00,WeatherDisplay:10.37,2013-01-10 15:07:00,
2013-01-10 07:12:00,31.6,30.1,30.11,SW,236,0.0,0.0,94,0.00,CLR,,0.00,WeatherDisplay:10.37,2013-01-10 15:12:00,
2013-01-10 07:17:00,31.2,29.7,30.11,SW,236,0.0,0.0,94,0.00,CLR,,0.00,WeatherDisplay:10.37,2013-01-10 15:17:00,
2013-01-10 07:22:00,31.2,29.7,30.11,SW,236,0.0,0.0,94,0.00,CLR,,0.00,WeatherDisplay:10.37,2013-01-10 15:22:00,
2013-01-10 07:27:00,31.5,30.0,30.11,SW,236,0.0,0.0,94,0.00,CLR,,0.00,WeatherDisplay:10.37,2013-01-10 15:27:00,
2013-01-10 07:33:00,31.3,29.8,30.12,SW,236,0.0,0.0,94,0.00,CLR,,0.00,WeatherDisplay:10.37,2013-01-10 15:33:00,
2013-01-10 07:38:00,30.6,29.1,30.12,ENE,75,1.1,1.1,94,0.00,CLR,,0.00,WeatherDisplay:10.37,2013-01-10 15:38:00,
2013-01-10 07:43:00,30.3,28.8,30.12,NNE,30,0.0,0.0,94,0.00,CLR,,0.00,WeatherDisplay:10.37,2013-01-10 15:43:00,
2013-01-10 07:48:00,30.7,29.2,30.12,NNE,30,0.0,0.0,94,0.00,CLR,,0.00,WeatherDisplay:10.37,2013-01-10 15:48:00,
2013-01-10 07:54:00,31.1,29.6,30.12,NNE,30,0.0,0.0,94,0.00,CLR,,0.00,WeatherDisplay:10.37,2013-01-10 15:54:00,
2013-01-10 07:59:00,32.2,30.9,30.13,NNE,30,0.0,0.0,95,0.00,CLR,,0.00,WeatherDisplay:10.37,2013-01-10 15:59:00,
2013-01-10 08:04:00,31.5,30.0,30.13,West,267,2.3,2.3,94,0.00,CLR,,0.00,WeatherDisplay:10.37,2013-01-10 16:04:00,
2013-01-10 08:10:00,31.9,30.6,30.13,SW,236,1.1,1.1,95,0.00,CLR,,0.00,WeatherDisplay:10.37,2013-01-10 16:10:00,
2013-01-10 08:15:00,32.2,30.9,30.14,SW,236,0.0,0.0,95,0.00,CLR,,0.00,WeatherDisplay:10.37,2013-01-10 16:15:00,
2013-01-10 08:20:00,32.8,31.5,30.14,WSW,246,0.0,0.0,95,0.00,CLR,,0.00,WeatherDisplay:10.37,2013-01-10 16:20:00,
2013-01-10 08:25:00,33.1,31.8,30.14,WSW,246,0.0,0.0,95,0.00,CLR,,0.00,WeatherDisplay:10.37,2013-01-10 16:25:00,
2013-01-10 08:30:00,32.9,31.6,30.14,WSW,246,0.0,0.0,95,0.00,CLR,,0.00,WeatherDisplay:10.37,2013-01-10 16:30:00,
2013-01-10 08:35:00,33.1,31.6,30.14,WSW,246,0.0,0.0,94,0.00,CLR,,0.00,WeatherDisplay:10.37,2013-01-10 16:35:00,
2013-01-10 08:41:00,33.6,32.3,30.14,East,91,1.1,1.1,95,0.00,CLR,,0.00,WeatherDisplay:10.37,2013-01-10 16:41:00,
2013-01-10 08:46:00,34.1,32.8,30.14,ENE,73,2.3,2.3,95,0.00,CLR,,0.00,WeatherDisplay:10.37,2013-01-10 16:46:00,
2013-01-10 08:51:00,34.5,33.2,30.14,ENE,74,1.1,1.1,95,0.00,CLR,,0.00,WeatherDisplay:10.37,2013-01-10 16:51:00,
2013-01-10 08:56:00,35.0,33.4,30.14,NW,311,1.1,1.1,94,0.00,CLR,,0.00,WeatherDisplay:10.37,2013-01-10 16:56:00,
2013-01-10 09:01:00,35.9,34.3,30.14,NW,323,3.5,3.5,94,0.00,CLR,,0.00,WeatherDisplay:10.37,2013-01-10 17:01:00,
2013-01-10 09:06:00,36.5,34.7,30.14,NNW,347,2.3,2.3,93,0.00,CLR,,0.00,WeatherDisplay:10.37,2013-01-10 17:06:00,
2013-01-10 09:11:00,36.9,34.8,30.14,NW,314,2.3,2.3,92,0.00,CLR,,0.00,WeatherDisplay:10.37,2013-01-10 17:11:00,
2013-01-10 09:17:00,37.3,34.9,30.14,NW,321,2.3,2.3,91,0.00,CLR,,0.00,WeatherDisplay:10.37,2013-01-10 17:17:00,
2013-01-10 09:22:00,37.8,35.1,30.14,NNW,333,2.3,2.3,90,0.00,CLR,,0.00,WeatherDisplay:10.37,2013-01-10 17:22:00,
2013-01-10 09:27:00,38.3,35.6,30.14,NNW,342,2.3,2.3,90,0.00,CLR,,0.00,WeatherDisplay:10.37,2013-01-10 17:27:00,
2013-01-10 09:32:00,38.7,35.7,30.14,NNE,17,2.3,2.3,89,0.00,CLR,,0.00,WeatherDisplay:10.37,2013-01-10 17:32:00,
2013-01-10 09:37:00,39.3,35.8,30.14,NNW,338,5.8,5.8,87,0.00,CLR,,0.00,WeatherDisplay:10.37,2013-01-10 17:37:00,
2013-01-10 09:42:00,39.6,36.0,30.14,NNW,343,4.6,4.6,87,0.00,CLR,,0.00,WeatherDisplay:10.37,2013-01-10 17:42:00,
2013-01-10 09:47:00,39.8,36.0,30.14,North,4,6.9,6.9,86,0.00,CLR,,0.00,WeatherDisplay:10.37,2013-01-10 17:47:00,
2013-01-10 09:52:00,39.9,36.3,30.14,NNW,342,5.8,5.8,87,0.00,CLR,,0.00,WeatherDisplay:10.37,2013-01-10 17:52:00,
2013-01-10 09:57:00,40.3,36.4,30.14,NNW,330,3.5,3.5,86,0.00,CLR,,0.00,WeatherDisplay:10.37,2013-01-10 17:57:00,
2013-01-10 10:02:00,40.7,36.5,30.14,NNW,345,4.6,4.6,85,0.00,CLR,,0.00,WeatherDisplay:10.37,2013-01-10 18:02:00,
2013-01-10 10:08:00,41.3,36.8,30.14,NNW,333,6.0,6.0,84,0.00,CLR,,0.00,WeatherDisplay:10.37,2013-01-10 18:08:00,
2013-01-10 10:13:00,41.8,37.0,30.14,North,359,5.0,5.0,83,0.00,CLR,,0.00,WeatherDisplay:10.37,2013-01-10 18:13:00,
2013-01-10 10:18:00,42.3,37.2,30.14,NNW,342,3.5,3.5,82,0.00,CLR,,0.00,WeatherDisplay:10.37,2013-01-10 18:18:00,
2013-01-10 10:23:00,42.8,37.1,30.14,NW,319,3.5,3.8,80,0.00,CLR,,0.00,WeatherDisplay:10.37,2013-01-10 18:23:00,
2013-01-10 10:28:00,43.3,36.9,30.14,NNW,341,5.8,5.8,78,0.00,CLR,,0.00,WeatherDisplay:10.37,2013-01-10 18:28:00,
2013-01-10 10:34:00,43.7,37.0,30.14,WNW,297,6.9,6.9,77,0.00,CLR,,0.00,WeatherDisplay:10.37,2013-01-10 18:34:00,
2013-01-10 10:39:00,43.8,36.7,30.14,NW,311,4.6,4.6,76,0.00,CLR,,0.00,WeatherDisplay:10.37,2013-01-10 18:39:00,
2013-01-10 10:44:00,44.1,36.0,30.13,NW,319,5.8,5.8,73,0.00,CLR,,0.00,WeatherDisplay:10.37,2013-01-10 18:44:00,
2013-01-10 10:49:00,44.7,36.6,30.13,NW,326,5.8,5.8,73,0.00,CLR,,0.00,WeatherDisplay:10.37,2013-01-10 18:49:00,
2013-01-10 10:54:00,44.8,36.7,30.13,WNW,293,6.9,6.9,73,0.00,CLR,,0.00,WeatherDisplay:10.37,2013-01-10 18:54:00,
2013-01-10 10:59:00,45.2,36.4,30.13,NW,311,8.1,8.1,71,0.00,CLR,,0.00,WeatherDisplay:10.37,2013-01-10 18:59:00,
2013-01-10 11:05:00,45.5,37.0,30.13,NNW,339,6.0,6.0,72,0.00,CLR,,0.00,WeatherDisplay:10.37,2013-01-10 19:05:00,
2013-01-10 11:10:00,45.7,36.1,30.13,NW,325,6.0,6.0,69,0.00,CLR,,0.00,WeatherDisplay:10.37,2013-01-10 19:10:00,
2013-01-10 11:15:00,46.0,36.4,30.13,NNE,13,8.1,8.1,69,0.00,CLR,,0.00,WeatherDisplay:10.37,2013-01-10 19:15:00,
2013-01-10 11:20:00,46.1,36.1,30.13,NNE,20,5.8,5.8,68,0.00,CLR,,0.00,WeatherDisplay:10.37,2013-01-10 19:20:00,
2013-01-10 11:25:00,46.3,36.3,30.13,NNW,339,6.0,6.0,68,0.00,CLR,,0.00,WeatherDisplay:10.37,2013-01-10 19:25:00,
2013-01-10 11:30:00,46.4,36.4,30.12,NNW,335,4.6,4.6,68,0.00,CLR,,0.00,WeatherDisplay:10.37,2013-01-10 19:30:00,
2013-01-10 11:35:00,46.9,36.5,30.12,NNW,341,9.2,9.2,67,0.00,CLR,,0.00,WeatherDisplay:10.37,2013-01-10 19:35:00,
2013-01-10 11:40:00,46.9,36.9,30.12,NNW,345,8.1,8.1,68,0.00,CLR,,0.00,WeatherDisplay:10.37,2013-01-10 19:40:00,
2013-01-10 11:45:00,47.1,35.9,30.11,NNE,13,7.0,7.0,65,0.00,CLR,,0.00,WeatherDisplay:10.37,2013-01-10 19:45:00,
2013-01-10 11:50:00,47.3,36.1,30.11,North,354,8.1,8.1,65,0.00,CLR,,0.00,WeatherDisplay:10.37,2013-01-10 19:50:00,
2013-01-10 11:55:00,47.6,37.2,30.11,North,1,5.8,5.8,67,0.00,CLR,,0.00,WeatherDisplay:10.37,2013-01-10 19:55:00,
2013-01-10 12:00:00,47.9,37.1,30.11,NE,34,6.9,6.9,66,0.00,CLR,,0.00,WeatherDisplay:10.37,2013-01-10 20:00:00,
2013-01-10 12:05:00,48.0,34.8,30.10,NNE,20,4.6,4.6,60,0.00,CLR,,0.00,WeatherDisplay:10.37,2013-01-10 20:05:00,
2013-01-10 12:11:00,48.2,35.4,30.10,WNW,297,4.6,4.6,61,0.00,CLR,,0.00,WeatherDisplay:10.37,2013-01-10 20:11:00,
2013-01-10 12:16:00,48.6,35.3,30.10,NNW,336,6.9,6.9,60,0.00,CLR,,0.00,WeatherDisplay:10.37,2013-01-10 20:16:00,
2013-01-10 12:21:00,48.7,34.1,30.09,WNW,301,3.5,3.5,57,0.00,CLR,,0.00,WeatherDisplay:10.37,2013-01-10 20:21:00,
2013-01-10 12:26:00,48.8,35.1,30.09,North,11,8.1,8.1,59,0.00,CLR,,0.00,WeatherDisplay:10.37,2013-01-10 20:26:00,
2013-01-10 12:32:00,48.8,34.7,30.09,NNW,334,8.1,8.1,58,0.00,CLR,,0.00,WeatherDisplay:10.37,2013-01-10 20:32:00,
2013-01-10 12:37:00,48.8,33.8,30.09,NNW,335,9.2,9.2,56,0.00,CLR,,0.00,WeatherDisplay:10.37,2013-01-10 20:37:00,
2013-01-10 12:42:00,49.0,34.0,30.09,North,349,5.8,5.8,56,0.00,CLR,,0.00,WeatherDisplay:10.37,2013-01-10 20:42:00,
2013-01-10 12:47:00,49.1,33.6,30.09,NNW,330,6.0,6.0,55,0.00,CLR,,0.00,WeatherDisplay:10.37,2013-01-10 20:47:00,
2013-01-10 12:52:00,49.1,34.9,30.09,NNW,335,6.9,6.9,58,0.00,CLR,,0.00,WeatherDisplay:10.37,2013-01-10 20:52:00,
2013-01-10 12:58:00,49.2,33.3,30.09,NNE,22,3.5,3.5,54,0.00,CLR,,0.00,WeatherDisplay:10.37,2013-01-10 20:58:00,
2013-01-10 13:03:00,49.3,33.8,30.09,NNW,341,8.1,8.1,55,0.00,CLR,,0.00,WeatherDisplay:10.37,2013-01-10 21:03:00,
2013-01-10 13:08:00,49.4,34.3,30.09,NNW,338,5.8,5.8,56,0.00,CLR,,0.00,WeatherDisplay:10.37,2013-01-10 21:08:00,
2013-01-10 13:13:00,49.3,32.4,30.09,NNE,12,5.8,5.8,52,0.00,CLR,,0.00,WeatherDisplay:10.37,2013-01-10 21:13:00,
2013-01-10 13:18:00,49.1,34.1,30.09,NNW,331,4.6,4.6,56,0.00,CLR,,0.00,WeatherDisplay:10.37,2013-01-10 21:18:00,
2013-01-10 13:24:00,49.0,33.5,30.09,North,359,3.5,3.5,55,0.00,CLR,,0.00,WeatherDisplay:10.37,2013-01-10 21:24:00,
2013-01-10 13:29:00,49.3,32.4,30.09,NW,324,3.5,3.5,52,0.00,CLR,,0.00,WeatherDisplay:10.37,2013-01-10 21:29:00,
2013-01-10 13:34:00,49.6,33.2,30.09,NW,326,0.0,0.0,53,0.00,CLR,,0.00,WeatherDisplay:10.37,2013-01-10 21:34:00,
2013-01-10 13:39:00,49.7,32.8,30.09,ENE,70,3.5,3.5,52,0.00,CLR,,0.00,WeatherDisplay:10.37,2013-01-10 21:39:00,
2013-01-10 13:44:00,49.9,33.9,30.08,NNE,25,3.5,3.5,54,0.00,CLR,,0.00,WeatherDisplay:10.37,2013-01-10 21:44:00,
2013-01-10 13:49:00,50.5,33.5,30.09,SW,221,3.5,3.5,52,0.00,CLR,,0.00,WeatherDisplay:10.37,2013-01-10 21:49:00,
2013-01-10 13:54:00,51.0,34.0,30.09,SSW,212,1.1,1.1,52,0.00,CLR,,0.00,WeatherDisplay:10.37,2013-01-10 21:54:00,
2013-01-10 13:59:00,51.2,34.6,30.08,WSW,257,3.5,3.5,53,0.00,CLR,,0.00,WeatherDisplay:10.37,2013-01-10 21:59:00,
2013-01-10 14:05:00,51.6,35.0,30.08,WSW,250,2.0,2.0,53,0.00,CLR,,0.00,WeatherDisplay:10.37,2013-01-10 22:05:00,
2013-01-10 14:10:00,52.1,35.0,30.08,SW,233,2.3,2.3,52,0.00,CLR,,0.00,WeatherDisplay:10.37,2013-01-10 22:10:00,
2013-01-10 14:15:00,52.5,35.8,30.08,West,260,2.3,2.3,53,0.00,CLR,,0.00,WeatherDisplay:10.37,2013-01-10 22:15:00,
2013-01-10 14:20:00,52.8,36.1,30.09,West,274,1.1,1.1,53,0.00,CLR,,0.00,WeatherDisplay:10.37,2013-01-10 22:20:00,
2013-01-10 14:26:00,52.8,35.2,30.08,WNW,302,3.5,3.5,51,0.00,CLR,,0.00,WeatherDisplay:10.37,2013-01-10 22:26:00,
2013-01-10 14:31:00,51.8,34.2,30.09,West,260,1.1,1.1,51,0.00,CLR,,0.00,WeatherDisplay:10.37,2013-01-10 22:31:00,
2013-01-10 14:36:00,52.2,34.1,30.08,WNW,299,2.3,2.3,50,0.00,CLR,,0.00,WeatherDisplay:10.37,2013-01-10 22:36:00,
2013-01-10 14:41:00,52.4,32.7,30.08,WNW,303,3.5,0.0,47,0.00,CLR,,0.00,WeatherDisplay:10.37,2013-01-10 22:41:00,
2013-01-10 14:46:00,53.2,34.5,30.09,NW,304,2.3,2.3,49,0.00,CLR,,0.00,WeatherDisplay:10.37,2013-01-10 22:46:00,
2013-01-10 14:51:00,53.1,33.9,30.09,West,281,3.5,3.5,48,0.00,CLR,,0.00,WeatherDisplay:10.37,2013-01-10 22:51:00,
2013-01-10 14:57:00,53.7,35.0,30.09,WSW,252,3.5,3.5,49,0.00,CLR,,0.00,WeatherDisplay:10.37,2013-01-10 22:57:00,
2013-01-10 15:02:00,54.3,34.5,30.09,West,260,3.5,3.5,47,0.00,CLR,,0.00,WeatherDisplay:10.37,2013-01-10 23:02:00,
2013-01-10 15:07:00,54.1,34.3,30.09,NNE,32,1.1,0.0,47,0.00,CLR,,0.00,WeatherDisplay:10.37,2013-01-10 23:07:00,
2013-01-10 15:12:00,54.6,34.2,30.09,WSW,240,1.1,1.1,46,0.00,CLR,,0.00,WeatherDisplay:10.37,2013-01-10 23:12:00,
2013-01-10 15:17:00,54.7,33.8,30.09,WNW,300,3.5,3.5,45,0.00,CLR,,0.00,WeatherDisplay:10.37,2013-01-10 23:17:00,
2013-01-10 15:23:00,53.8,31.8,30.08,NW,304,5.0,5.0,43,0.00,CLR,,0.00,WeatherDisplay:10.37,2013-01-10 23:23:00,
2013-01-10 15:28:00,53.0,33.3,30.08,WSW,256,4.6,4.6,47,0.00,CLR,,0.00,WeatherDisplay:10.37,2013-01-10 23:28:00,
2013-01-10 15:33:00,53.9,34.1,30.08,WSW,249,3.5,3.5,47,0.00,CLR,,0.00,WeatherDisplay:10.37,2013-01-10 23:33:00,
2013-01-10 15:38:00,54.3,34.5,30.08,WSW,253,3.5,3.5,47,0.00,CLR,,0.00,WeatherDisplay:10.37,2013-01-10 23:38:00,
2013-01-10 15:43:00,54.4,34.6,30.09,West,264,3.5,3.5,47,0.00,CLR,,0.00,WeatherDisplay:10.37,2013-01-10 23:43:00,
2013-01-10 15:49:00,54.1,34.3,30.09,NW,309,3.5,3.5,47,0.00,CLR,,0.00,WeatherDisplay:10.37,2013-01-10 23:49:00,
2013-01-10 15:54:00,54.2,34.9,30.09,WSW,253,1.1,1.1,48,0.00,CLR,,0.00,WeatherDisplay:10.37,2013-01-10 23:54:00,
2013-01-10 15:59:00,54.6,35.8,30.09,WSW,243,1.1,1.1,49,0.00,CLR,,0.00,WeatherDisplay:10.37,2013-01-10 23:59:00,
2013-01-10 16:04:00,54.7,34.8,30.09,WSW,249,2.0,2.0,47,0.00,CLR,,0.00,WeatherDisplay:10.37,2013-01-11 00:04:00,
2013-01-10 16:09:00,54.4,34.6,30.09,SW,225,3.0,3.0,47,0.00,CLR,,0.00,WeatherDisplay:10.37,2013-01-11 00:09:00,
2013-01-10 16:14:00,54.1,34.8,30.09,West,273,1.1,1.1,48,0.00,CLR,,0.00,WeatherDisplay:10.37,2013-01-11 00:14:00,
2013-01-10 16:20:00,54.1,34.8,30.09,SW,233,2.0,2.0,48,0.00,CLR,,0.00,WeatherDisplay:10.37,2013-01-11 00:20:00,
2013-01-10 16:25:00,53.9,34.6,30.09,WSW,244,2.3,2.3,48,0.00,CLR,,0.00,WeatherDisplay:10.37,2013-01-11 00:25:00,
2013-01-10 16:30:00,53.4,34.7,30.09,WSW,253,2.3,2.3,49,0.00,CLR,,0.00,WeatherDisplay:10.37,2013-01-11 00:30:00,
2013-01-10 16:35:00,52.4,34.3,30.09,NW,319,2.3,2.3,50,0.00,CLR,,0.00,WeatherDisplay:10.37,2013-01-11 00:35:00,
2013-01-10 16:40:00,50.8,33.8,30.09,NW,326,2.3,2.3,52,0.00,CLR,,0.00,WeatherDisplay:10.37,2013-01-11 00:40:00,
2013-01-10 16:45:00,50.0,34.0,30.10,WNW,301,1.1,1.1,54,0.00,CLR,,0.00,WeatherDisplay:10.37,2013-01-11 00:45:00,
2013-01-10 16:51:00,49.5,33.1,30.10,North,8,4.6,4.6,53,0.00,CLR,,0.00,WeatherDisplay:10.37,2013-01-11 00:51:00,
2013-01-10 16:56:00,49.1,32.7,30.10,NW,326,4.6,4.6,53,0.00,CLR,,0.00,WeatherDisplay:10.37,2013-01-11 00:56:00,
2013-01-10 17:01:00,48.8,32.9,30.10,NW,307,8.1,8.1,54,0.00,CLR,,0.00,WeatherDisplay:10.37,2013-01-11 01:01:00,
2013-01-10 17:06:00,48.6,32.7,30.10,NW,314,4.6,4.6,54,0.00,CLR,,0.00,WeatherDisplay:10.37,2013-01-11 01:06:00,
2013-01-10 17:11:00,48.5,32.6,30.10,NW,305,8.1,8.1,54,0.00,CLR,,0.00,WeatherDisplay:10.37,2013-01-11 01:11:00,
2013-01-10 17:16:00,48.3,33.3,30.10,NW,316,2.3,2.3,56,0.00,CLR,,0.00,WeatherDisplay:10.37,2013-01-11 01:16:00,
2013-01-10 17:22:00,48.1,32.7,30.10,NNW,331,3.5,3.5,55,0.00,CLR,,0.00,WeatherDisplay:10.37,2013-01-11 01:22:00,
2013-01-10 17:27:00,48.0,32.6,30.11,NW,311,4.6,4.6,55,0.00,CLR,,0.00,WeatherDisplay:10.37,2013-01-11 01:27:00,
2013-01-10 17:32:00,47.1,32.6,30.11,NNE,19,2.3,2.3,57,0.00,CLR,,0.00,WeatherDisplay:10.37,2013-01-11 01:32:00,
2013-01-10 17:37:00,46.1,33.0,30.11,North,359,1.1,1.2,60,0.00,CLR,,0.00,WeatherDisplay:10.37,2013-01-11 01:37:00,
2013-01-10 17:42:00,45.8,33.1,30.11,NW,323,3.5,3.5,61,0.00,CLR,,0.00,WeatherDisplay:10.37,2013-01-11 01:42:00,
2013-01-10 17:47:00,45.8,33.5,30.12,North,9,1.1,1.1,62,0.00,CLR,,0.00,WeatherDisplay:10.37,2013-01-11 01:47:00,
2013-01-10 17:52:00,45.6,33.3,30.12,NW,308,3.5,3.5,62,0.00,CLR,,0.00,WeatherDisplay:10.37,2013-01-11 01:52:00,
2013-01-10 17:57:00,45.7,33.4,30.12,WNW,299,3.5,3.5,62,0.00,CLR,,0.00,WeatherDisplay:10.37,2013-01-11 01:57:00,
2013-01-10 18:02:00,46.0,33.7,30.12,WNW,287,4.6,4.6,62,0.00,CLR,,0.00,WeatherDisplay:10.37,2013-01-11 02:02:00,
2013-01-10 18:07:00,46.1,33.8,30.13,WNW,298,4.0,4.0,62,0.00,CLR,,0.00,WeatherDisplay:10.37,2013-01-11 02:07:00,
2013-01-10 18:12:00,46.0,33.7,30.13,NNW,342,3.5,3.5,62,0.00,CLR,,0.00,WeatherDisplay:10.37,2013-01-11 02:12:00,
2013-01-10 18:17:00,44.9,33.1,30.13,NNW,335,3.5,3.5,63,0.00,CLR,,0.00,WeatherDisplay:10.37,2013-01-11 02:17:00,
2013-01-10 18:22:00,44.5,33.1,30.13,NNW,334,3.5,3.5,64,0.00,CLR,,0.00,WeatherDisplay:10.37,2013-01-11 02:22:00,
2013-01-10 18:27:00,43.9,33.3,30.13,NNW,330,3.5,3.5,66,0.00,CLR,,0.00,WeatherDisplay:10.37,2013-01-11 02:27:00,
2013-01-10 18:33:00,44.0,33.7,30.13,NW,314,2.3,2.3,67,0.00,CLR,,0.00,WeatherDisplay:10.37,2013-01-11 02:33:00,
2013-01-10 18:38:00,44.1,34.2,30.13,WNW,290,6.9,6.9,68,0.00,CLR,,0.00,WeatherDisplay:10.37,2013-01-11 02:38:00,
2013-01-10 18:44:00,44.6,34.3,30.14,WNW,301,3.5,3.5,67,0.00,CLR,,0.00,WeatherDisplay:10.37,2013-01-11 02:44:00,
2013-01-10 18:49:00,44.9,34.2,30.14,West,280,5.8,5.8,66,0.00,CLR,,0.00,WeatherDisplay:10.37,2013-01-11 02:49:00,
2013-01-10 18:54:00,45.0,33.9,30.14,NW,323,3.5,3.5,65,0.00,CLR,,0.00,WeatherDisplay:10.37,2013-01-11 02:54:00,
2013-01-10 18:59:00,45.2,33.7,30.14,NW,304,4.6,4.6,64,0.00,CLR,,0.00,WeatherDisplay:10.37,2013-01-11 02:59:00,
2013-01-10 19:04:00,45.3,33.8,30.14,WNW,297,5.0,5.0,64,0.00,CLR,,0.00,WeatherDisplay:10.37,2013-01-11 03:04:00,
2013-01-10 19:09:00,45.3,33.8,30.14,NW,315,4.0,4.0,64,0.00,CLR,,0.00,WeatherDisplay:10.37,2013-01-11 03:09:00,
2013-01-10 19:15:00,45.2,33.7,30.14,NNW,331,3.5,3.5,64,0.00,CLR,,0.00,WeatherDisplay:10.37,2013-01-11 03:15:00,
2013-01-10 19:20:00,45.0,33.5,30.15,NW,308,3.5,3.5,64,0.00,CLR,,0.00,WeatherDisplay:10.37,2013-01-11 03:20:00,
2013-01-10 19:26:00,44.8,33.4,30.15,NW,311,3.5,3.5,64,0.00,CLR,,0.00,WeatherDisplay:10.37,2013-01-11 03:26:00,
2013-01-10 19:31:00,44.8,33.4,30.15,NW,308,8.1,8.1,64,0.00,CLR,,0.00,WeatherDisplay:10.37,2013-01-11 03:31:00,
2013-01-10 19:36:00,44.7,33.3,30.15,NNW,342,4.6,4.6,64,0.00,CLR,,0.00,WeatherDisplay:10.37,2013-01-11 03:36:00,
2013-01-10 19:42:00,44.4,33.4,30.15,North,357,6.9,6.9,65,0.00,CLR,,0.00,WeatherDisplay:10.37,2013-01-11 03:42:00,
2013-01-10 19:47:00,44.0,33.4,30.15,NNW,340,4.0,4.0,66,0.00,CLR,,0.00,WeatherDisplay:10.37,2013-01-11 03:47:00,
2013-01-10 19:52:00,43.1,32.9,30.15,NNE,20,3.5,3.5,67,0.00,CLR,,0.00,WeatherDisplay:10.37,2013-01-11 03:52:00,
2013-01-10 19:58:00,41.7,32.6,30.15,North,351,3.5,3.5,70,0.00,CLR,,0.00,WeatherDisplay:10.37,2013-01-11 03:58:00,
2013-01-10 20:03:00,41.1,32.8,30.15,NNW,328,3.5,3.5,72,0.00,CLR,,0.00,WeatherDisplay:10.37,2013-01-11 04:03:00,
2013-01-10 20:08:00,41.1,32.8,30.16,NNW,330,3.5,3.5,72,0.00,CLR,,0.00,WeatherDisplay:10.37,2013-01-11 04:08:00,
2013-01-10 20:13:00,41.2,32.9,30.16,WNW,297,3.5,3.5,72,0.00,CLR,,0.00,WeatherDisplay:10.37,2013-01-11 04:13:00,
2013-01-10 20:18:00,40.9,32.6,30.16,NNW,335,3.5,3.5,72,0.00,CLR,,0.00,WeatherDisplay:10.37,2013-01-11 04:18:00,
2013-01-10 20:24:00,40.4,32.4,30.16,NW,326,3.5,3.5,73,0.00,CLR,,0.00,WeatherDisplay:10.37,2013-01-11 04:24:00,
2013-01-10 20:29:00,40.1,32.5,30.16,NNW,329,4.6,4.6,74,0.00,CLR,,0.00,WeatherDisplay:10.37,2013-01-11 04:29:00,
2013-01-10 20:35:00,40.1,32.8,30.17,NNW,333,3.5,3.5,75,0.00,CLR,,0.00,WeatherDisplay:10.37,2013-01-11 04:35:00,
2013-01-10 20:40:00,41.2,33.2,30.16,NW,310,3.5,3.5,73,0.00,CLR,,0.00,WeatherDisplay:10.37,2013-01-11 04:40:00,
2013-01-10 20:45:00,41.9,33.2,30.16,WNW,294,5.8,5.8,71,0.00,CLR,,0.00,WeatherDisplay:10.37,2013-01-11 04:45:00,
2013-01-10 20:50:00,42.4,32.9,30.17,NW,319,3.5,3.5,69,0.00,CLR,,0.00,WeatherDisplay:10.37,2013-01-11 04:50:00,
2013-01-10 20:55:00,42.5,33.0,30.17,NNW,330,4.0,4.0,69,0.00,CLR,,0.00,WeatherDisplay:10.37,2013-01-11 04:55:00,
2013-01-10 21:00:00,42.1,32.7,30.17,NNW,344,3.5,3.5,69,0.00,CLR,,0.00,WeatherDisplay:10.37,2013-01-11 05:00:00,
2013-01-10 21:02:00,41.7,32.6,30.17,NNW,329,2.3,2.3,70,0.00,CLR,,0.00,WeatherDisplay:10.37,2013-01-11 05:02:00,
2013-01-10 21:04:00,41.2,32.2,30.17,NNW,345,2.3,2.3,70,0.00,CLR,,0.00,WeatherDisplay:10.37,2013-01-11 05:04:00,
2013-01-10 21:10:00,40.0,32.0,30.17,North,1,3.5,3.5,73,0.00,CLR,,0.00,WeatherDisplay:10.37,2013-01-11 05:10:00,
2013-01-10 21:15:00,39.4,31.8,30.18,North,11,1.1,1.1,74,0.00,CLR,,0.00,WeatherDisplay:10.37,2013-01-11 05:15:00,
2013-01-10 21:20:00,38.8,31.9,30.18,North,11,1.1,1.1,76,0.00,CLR,,0.00,WeatherDisplay:10.37,2013-01-11 05:20:00,
2013-01-10 21:25:00,38.7,32.4,30.18,North,359,1.1,1.1,78,0.00,CLR,,0.00,WeatherDisplay:10.37,2013-01-11 05:25:00,
2013-01-10 21:30:00,38.6,32.0,30.18,NNW,342,2.3,2.3,77,0.00,CLR,,0.00,WeatherDisplay:10.37,2013-01-11 05:30:00,
2013-01-10 21:35:00,38.1,31.8,30.18,NNW,330,3.5,3.5,78,0.00,CLR,,0.00,WeatherDisplay:10.37,2013-01-11 05:35:00,
2013-01-10 21:40:00,37.8,31.9,30.18,NNW,333,3.5,3.5,79,0.00,CLR,,0.00,WeatherDisplay:10.37,2013-01-11 05:40:00,
2013-01-10 21:46:00,36.9,31.3,30.18,NNW,333,2.3,2.3,80,0.00,CLR,,0.00,WeatherDisplay:10.37,2013-01-11 05:46:00,
2013-01-10 21:51:00,36.3,31.0,30.18,NNW,334,1.1,1.1,81,0.00,CLR,,0.00,WeatherDisplay:10.37,2013-01-11 05:51:00,
2013-01-10 21:56:00,35.8,31.1,30.18,NNW,335,1.1,1.1,83,0.00,CLR,,0.00,WeatherDisplay:10.37,2013-01-11 05:56:00,
2013-01-10 22:01:00,35.8,31.1,30.18,North,353,1.1,1.1,83,0.00,CLR,,0.00,WeatherDisplay:10.37,2013-01-11 06:01:00,
2013-01-10 22:06:00,35.3,30.9,30.19,NNE,32,2.3,2.3,84,0.00,CLR,,0.00,WeatherDisplay:10.37,2013-01-11 06:06:00,
2013-01-10 22:11:00,35.9,31.5,30.19,NNE,16,2.3,2.3,84,0.00,CLR,,0.00,WeatherDisplay:10.37,2013-01-11 06:11:00,
2013-01-10 22:17:00,36.9,31.6,30.19,NNE,19,2.3,2.3,81,0.00,CLR,,0.00,WeatherDisplay:10.37,2013-01-11 06:17:00,
2013-01-10 22:22:00,36.7,31.1,30.19,North,9,3.5,3.5,80,0.00,CLR,,0.00,WeatherDisplay:10.37,2013-01-11 06:22:00,
2013-01-10 22:27:00,35.6,30.3,30.19,NE,53,3.5,3.5,81,0.00,CLR,,0.00,WeatherDisplay:10.37,2013-01-11 06:27:00,
2013-01-10 22:32:00,34.8,30.5,30.18,NE,37,3.5,3.5,84,0.00,CLR,,0.00,WeatherDisplay:10.37,2013-01-11 06:32:00,
2013-01-10 22:38:00,34.7,30.7,30.19,NW,314,2.3,2.3,85,0.00,CLR,,0.00,WeatherDisplay:10.37,2013-01-11 06:38:00,
2013-01-10 22:43:00,35.1,30.8,30.19,WNW,299,1.1,1.1,84,0.00,CLR,,0.00,WeatherDisplay:10.37,2013-01-11 06:43:00,
2013-01-10 22:48:00,35.5,30.8,30.19,NNW,335,2.3,2.3,83,0.00,CLR,,0.00,WeatherDisplay:10.37,2013-01-11 06:48:00,
2013-01-10 22:53:00,35.4,30.5,30.19,North,349,3.5,3.5,82,0.00,CLR,,0.00,WeatherDisplay:10.37,2013-01-11 06:53:00,
2013-01-10 22:59:00,34.6,30.3,30.19,NW,311,2.3,2.3,84,0.00,CLR,,0.00,WeatherDisplay:10.37,2013-01-11 06:59:00,
2013-01-10 23:04:00,34.2,29.9,30.19,North,4,2.3,2.3,84,0.00,CLR,,0.00,WeatherDisplay:10.37,2013-01-11 07:04:00,
2013-01-10 23:09:00,33.9,29.9,30.19,NNW,342,1.1,1.1,85,0.00,CLR,,0.00,WeatherDisplay:10.37,2013-01-11 07:09:00,
2013-01-10 23:14:00,33.7,30.0,30.20,NNW,342,1.1,1.1,86,0.00,CLR,,0.00,WeatherDisplay:10.37,2013-01-11 07:14:00,
2013-01-10 23:19:00,33.9,30.2,30.20,North,6,3.5,3.5,86,0.00,CLR,,0.00,WeatherDisplay:10.37,2013-01-11 07:19:00,
2013-01-10 23:24:00,34.1,29.8,30.19,NNW,339,2.3,2.3,84,0.00,CLR,,0.00,WeatherDisplay:10.37,2013-01-11 07:24:00,
2013-01-10 23:29:00,34.2,29.9,30.20,NNW,335,3.5,3.5,84,0.00,CLR,,0.00,WeatherDisplay:10.37,2013-01-11 07:29:00,
2013-01-10 23:34:00,34.4,30.1,30.20,NNW,329,3.5,3.5,84,0.00,CLR,,0.00,WeatherDisplay:10.37,2013-01-11 07:34:00,
2013-01-10 23:40:00,34.5,30.2,30.20,NW,316,2.3,2.3,84,0.00,CLR,,0.00,WeatherDisplay:10.37,2013-01-11 07:40:00,
2013-01-10 23:45:00,34.6,30.0,30.19,WNW,301,1.1,1.1,83,0.00,CLR,,0.00,WeatherDisplay:10.37,2013-01-11 07:45:00,
2013-01-10 23:50:00,34.4,29.8,30.19,NNE,30,3.5,3.5,83,0.00,CLR,,0.00,WeatherDisplay:10.37,2013-01-11 07:50:00,
2013-01-10 23:55:00,33.2,28.9,30.20,NE,37,3.5,3.5,84,0.00,CLR,,0.00,WeatherDisplay:10.37,2013-01-11 07:55:00,